TimeEST,TemperatureF,Dew PointF,Humidity,Sea Level PressureIn,VisibilityMPH,Wind Direction,Wind SpeedMPH,Gust SpeedMPH,PrecipitationIn,Events,Conditions,WindDirDegrees,DateUTC
12:54 AM,37.0,25.0,62,29.84,10.0,West,10.4,-,N/A,,Overcast,270,2013-02-13 05:54:00
1:54 AM,36.0,24.1,62,29.82,10.0,West,8.1,-,N/A,,Scattered Clouds,270,2013-02-13 06:54:00
2:54 AM,34.0,23.0,64,29.82,10.0,WSW,8.1,-,N/A,,Partly Cloudy,250,2013-02-13 07:54:00
3:54 AM,33.1,21.9,64,29.84,10.0,SW,8.1,-,N/A,,Clear,230,2013-02-13 08:54:00
4:54 AM,32.0,21.0,64,29.86,10.0,SW,8.1,-,N/A,,Clear,230,2013-02-13 09:54:00
5:54 AM,30.0,21.0,69,29.86,10.0,SW,4.6,-,N/A,,Clear,220,2013-02-13 10:54:00
6:54 AM,28.9,19.9,69,29.87,10.0,SW,4.6,-,N/A,,Clear,230,2013-02-13 11:54:00
7:54 AM,30.0,21.0,69,29.87,10.0,Calm,Calm,-,N/A,,Clear,0,2013-02-13 12:54:00
8:54 AM,34.0,21.9,61,29.87,10.0,WSW,4.6,-,N/A,,Clear,250,2013-02-13 13:54:00
9:54 AM,37.0,21.0,52,29.86,10.0,NW,11.5,-,N/A,,Clear,310,2013-02-13 14:54:00
10:54 AM,39.0,21.0,49,29.84,10.0,WNW,9.2,-,N/A,,Clear,300,2013-02-13 15:54:00
11:54 AM,39.9,21.0,47,29.82,10.0,WNW,4.6,-,N/A,,Scattered Clouds,300,2013-02-13 16:54:00
12:54 PM,39.9,21.0,47,29.82,10.0,NW,4.6,-,N/A,,Overcast,320,2013-02-13 17:54:00
1:54 PM,41.0,21.0,45,29.81,10.0,West,6.9,-,N/A,,Mostly Cloudy,280,2013-02-13 18:54:00
2:54 PM,42.1,21.0,43,29.79,10.0,West,8.1,-,N/A,,Mostly Cloudy,270,2013-02-13 19:54:00
3:54 PM,42.1,19.9,41,29.77,10.0,NW,3.5,-,N/A,,Partly Cloudy,320,2013-02-13 20:54:00
4:54 PM,41.0,19.9,43,29.77,10.0,Calm,Calm,-,N/A,,Partly Cloudy,0,2013-02-13 21:54:00
5:54 PM,35.1,21.9,59,29.77,10.0,Calm,Calm,-,N/A,,Clear,0,2013-02-13 22:54:00
6:54 PM,34.0,21.9,61,29.77,10.0,Calm,Calm,-,N/A,,Clear,0,2013-02-13 23:54:00
7:54 PM,33.1,23.0,66,29.77,10.0,East,3.5,-,N/A,,Clear,100,2013-02-14 00:54:00
8:54 PM,30.0,23.0,75,29.77,10.0,Calm,Calm,-,N/A,,Clear,0,2013-02-14 01:54:00
9:54 PM,30.9,24.1,76,29.76,10.0,Calm,Calm,-,N/A,,Mostly Cloudy,0,2013-02-14 02:54:00
10:54 PM,32.0,24.1,73,29.74,10.0,Calm,Calm,-,0.00,,Overcast,0,2013-02-14 03:54:00
11:54 PM,33.1,21.9,64,29.73,10.0,North,5.8,-,N/A,,Overcast,350,2013-02-14 04:54:00